SAA26S FIMP-FSIA

Flight info

Callsign SAA26S
Flight time N/A
Altitude 37000
Route DURDA1C DURDA UT401 ALRAN UM313 RERUS/N0480F380 DCT IMPOX IMPOX1R
Aircraft A346/H-SDE2E3FGHIJ3J4J5M1RWXY/LB1D1

Departure

Time N/A
Airport Sir Seewoosagur Ramgoolam International Airport (FIMP)

Arrival

Time 2026-04-23 12:49
Airport Seychelles International Airport (FSIA)
Time Latitude Longitude Altitude Speed Heading
2026-04-23 12:34 -4.91966 55.28439 15005 ft 338 kts
2026-04-23 12:35 -4.89634 55.28530 14654 ft 337 kts
2026-04-23 12:35 -4.87286 55.28622 14296 ft 337 kts
2026-04-23 12:35 -4.84949 55.28712 13938 ft 336 kts
2026-04-23 12:35 -4.82612 55.28802 13580 ft 335 kts
2026-04-23 12:36 -4.80300 55.28892 13195 ft 334 kts
2026-04-23 12:36 -4.77979 55.28982 12823 ft 332 kts
2026-04-23 12:36 -4.75670 55.29072 12462 ft 330 kts
2026-04-23 12:36 -4.73402 55.29160 12109 ft 328 kts
2026-04-23 12:37 -4.71126 55.29248 11763 ft 326 kts
2026-04-23 12:37 -4.68861 55.29336 11416 ft 324 kts
2026-04-23 12:37 -4.66633 55.29423 11069 ft 323 kts
2026-04-23 12:37 -4.64391 55.29511 10721 ft 321 kts
2026-04-23 12:38 -4.62160 55.29597 10379 ft 320 kts
2026-04-23 12:38 -4.59957 55.29682 10240 ft 309 kts
2026-04-23 12:38 -4.57849 55.29764 10180 ft 297 kts
2026-04-23 12:38 -4.55847 55.29699 10044 ft 287 kts 345°
2026-04-23 12:39 -4.54095 55.28822 9847 ft 280 kts 318°
2026-04-23 12:39 -4.52816 55.27340 9437 ft 282 kts 306°
2026-04-23 12:39 -4.51591 55.25804 8907 ft 288 kts 314°
2026-04-23 12:39 -4.50085 55.24507 8652 ft 283 kts 326°
2026-04-23 12:40 -4.48343 55.23604 8281 ft 280 kts 340°
2026-04-23 12:40 -4.46455 55.23152 7885 ft 275 kts 356°
2026-04-23 12:40 -4.44639 55.23517 7431 ft 271 kts 32°
2026-04-23 12:40 -4.43340 55.24820 7087 ft 262 kts 58°
2026-04-23 12:41 -4.42482 55.26416 6686 ft 257 kts 66°
2026-04-23 12:41 -4.41843 55.28046 6326 ft 251 kts 72°
2026-04-23 12:41 -4.41365 55.29748 5937 ft 246 kts 77°
2026-04-23 12:41 -4.41070 55.31429 5555 ft 242 kts 83°
2026-04-23 12:42 -4.40951 55.33099 5201 ft 236 kts 89°
2026-04-23 12:42 -4.41006 55.34704 4909 ft 228 kts 95°
2026-04-23 12:42 -4.41223 55.36270 4534 ft 224 kts 101°
2026-04-23 12:42 -4.41606 55.37777 4267 ft 219 kts 108°
2026-04-23 12:43 -4.42132 55.39176 4034 ft 214 kts 114°
2026-04-23 12:43 -4.42805 55.40485 3878 ft 205 kts 121°
2026-04-23 12:43 -4.43597 55.41662 3744 ft 199 kts 128°
2026-04-23 12:43 -4.44492 55.42701 3577 ft 199 kts 135°
2026-04-23 12:44 -4.45524 55.43633 3314 ft 198 kts 142°
2026-04-23 12:44 -4.46655 55.44408 3065 ft 195 kts 149°
2026-04-23 12:44 -4.47846 55.45065 3011 ft 195 kts 152°
2026-04-23 12:44 -4.49061 55.45654 2810 ft 196 kts 156°
2026-04-23 12:45 -4.50324 55.46145 2605 ft 193 kts 162°
2026-04-23 12:45 -4.51626 55.46487 2604 ft 194 kts 168°
2026-04-23 12:45 -4.52972 55.46647 2650 ft 194 kts 178°
2026-04-23 12:45 -4.54280 55.46639 2569 ft 180 kts 182°
2026-04-23 12:46 -4.55494 55.46547 2424 ft 169 kts 185°
2026-04-23 12:46 -4.56631 55.46426 2366 ft 165 kts 185°
2026-04-23 12:46 -4.57773 55.46316 2278 ft 165 kts 183°
2026-04-23 12:46 -4.58919 55.46275 2073 ft 164 kts 179°
2026-04-23 12:47 -4.60054 55.46333 1871 ft 163 kts 173°
2026-04-23 12:47 -4.61177 55.46458 1655 ft 162 kts 174°
2026-04-23 12:47 -4.62288 55.46619 1396 ft 161 kts 167°
2026-04-23 12:47 -4.63344 55.47006 1131 ft 160 kts 150°
2026-04-23 12:48 -4.64201 55.47682 900 ft 160 kts 132°
2026-04-23 12:48 -4.64907 55.48543 723 ft 159 kts 127°
2026-04-23 12:48 -4.65560 55.49437 519 ft 158 kts 126°
2026-04-23 12:48 -4.66180 55.50342 251 ft 156 kts 125°
2026-04-23 12:49 -4.66786 55.51248 29 ft 155 kts 124°
2026-04-23 12:49 -4.67294 55.51990 21 ft 100 kts 125°
2026-04-23 12:49 -4.67595 55.52420 19 ft 52 kts 125°
2026-04-23 12:49 -4.67756 55.52648 16 ft 34 kts 125°
2026-04-23 12:50 -4.67875 55.52815 17 ft 27 kts 125°
2026-04-23 12:50 -4.67981 55.52968 19 ft 27 kts 124°
2026-04-23 12:50 -4.68083 55.53113 21 ft 22 kts 132°
2026-04-23 12:50 -4.68211 55.53171 22 ft 10 kts 163°
2026-04-23 12:51 -4.68264 55.53206 23 ft 9 kts 106°
2026-04-23 12:51 -4.68224 55.53263 21 ft 12 kts 25°
2026-04-23 12:51 -4.68174 55.53248 20 ft 13 kts 311°
2026-04-23 12:51 -4.68093 55.53134 21 ft 17 kts 305°
2026-04-23 12:52 -4.68021 55.53031 21 ft 19 kts 305°
2026-04-23 12:52 -4.67935 55.52909 18 ft 23 kts 305°
2026-04-23 12:52 -4.67871 55.52819 17 ft 24 kts 305°
2026-04-23 12:52 -4.67738 55.52622 15 ft 27 kts 305°
2026-04-23 12:53 -4.67629 55.52468 18 ft 27 kts 306°
2026-04-23 12:53 -4.67556 55.52365 19 ft 28 kts 305°
2026-04-23 12:53 -4.67407 55.52155 23 ft 28 kts 305°
2026-04-23 12:53 -4.67329 55.52046 23 ft 29 kts 305°
2026-04-23 12:54 -4.67209 55.51877 25 ft 30 kts 305°
2026-04-23 12:54 -4.67089 55.51702 19 ft 30 kts 303°
2026-04-23 12:54 -4.66984 55.51547 20 ft 23 kts 305°
2026-04-23 12:54 -4.66924 55.51461 20 ft 8 kts 305°
2026-04-23 12:55 -4.66893 55.51416 20 ft 7 kts 304°
2026-04-23 12:55 -4.66901 55.51376 20 ft 7 kts 225°
2026-04-23 12:55 -4.66953 55.51345 20 ft 10 kts 207°
2026-04-23 12:55 -4.66986 55.51325 20 ft 4 kts 223°
2026-04-23 12:56 -4.66997 55.51302 19 ft 4 kts 260°
2026-04-23 12:56 -4.66992 55.51275 20 ft 4 kts 288°
2026-04-23 12:56 -4.66990 55.51270 20 ft 0 kts 288°
2026-04-23 12:56 -4.66990 55.51266 20 ft 2 kts 266°
2026-04-23 12:57 -4.67002 55.51246 20 ft 6 kts 216°
2026-04-23 12:57 -4.67030 55.51224 21 ft 2 kts 214°
2026-04-23 12:57 -4.67038 55.51219 20 ft 0 kts 214°